Location: Albert
(44.3172°N, 77.1347°W)
Time: 07:31:42
(UTC+00:00)

ISS - Pass Details

Date: 23 October 2021
Orbit: 417 x 422 km, 51.6° (Epoch: 07 December)

Event Time Altitude Azimuth Distance (km) Brightness Sun altitude
Exits shadow 10:28:01 10° 223° (SW) 1,503 -1.3 -12.5°
Reaches altitude 10° 10:28:02 10° 223° (SW) 1,494 -1.3 -12.5°
Maximum altitude 10:31:20 56° 144° (SE) 501 -3.2 -11.9°
Drops below altitude 10° 10:34:38 10° 65° (ENE) 1,498 0.1 -11.3°
Sets 10:36:45 0° 61° (ENE) 2,364 1.1 -10.9°
